SCP
0 0 0 0 0 0 -0 0 -0 0 0 0 0 0 0 0 0 0 0 0 0 0 0 0 0 0 0 0 0 0 0 0 0 0 0 0 0 0 0 0 0 0 0 0 0 0 0 0 0
0 0 0 0 0 0 0 0 0 0 0 0 0 0 0 0 0 0 0 0 0 0 0 0 0 0 0 0 0 0 0 0 0 0 0 0 0 0 0 0 0 0 0 0 0 0 0 0 0
0 0 0 0 0 0 0 0 0 0 0 0 0 0 0 0 0 0 0 0 0 0 0 0 0 0 0 0 0 0 0 0 0 0 0 0 0 0 0 0 0 0 0 0 0 0 0 0 0
0 0 0 0 0 0 0 0 0 0 0 0 0 0 0 0 0 0 0 0 0 0 0 0 0 0 0 0 0 0 0 0 0 0 0 0 0 0 0 0 0 0 0 0 0 0 0 0 0
0 0 0 0 0 0 0 0 0 0 0 0 0 0 0 0 0 0 0 0 0 0 0 0 0 0 0 0 0 0 0 1 0 0 0 0 0 0 0 0 0 0 0 0 0 0 0 0 0
0 0 0 0 0 0 0 0 0 0 0 0 0 0 0 0 0 0 0 0 0 0 0 0 0 0 0 0 0 1 0 0 1 0 0 0 0 0 0 0 0 0 0 0 0 0 0 0 0
0 0 0 0 0 0 0 0 0 0 0 0 0 0 0 0 0 0 0 0 0 0 0 0 0 0 0 0 0 0 1 0 1 1 1 0 0 0 0 0 0 0 0 0 0 0 0 0 0
0 0 0 0 0 0 0 0 0 0 0 0 0 0 0 0 0 0 0 0 0 0 0 0 0 0 0 0 0 0 0 1 1 1 1 0 0 0 0 0 0 0 0 0 0 0 0 0 0
0 0 0 0 0 0 0 0 0 0 0 0 0 0 0 0 0 0 0 0 0 0 0 0 0 0 0 0 0 0 0 0 0 0 0 0 0 0 0 0 0 0 0 0 0 0 0 0 0
0 0 0 0 0 0 0 0 0 0 0 0 0 0 0 0 0 0 0 0 0 0 0 0 0 0 0 0 0 0 1 1 0 1 1 1 1 1 0 0 0 0 0 0 0 0 0 0 0
0 0 0 0 0 0 0 0 0 0 0 0 0 0 0 0 0 0 0 0 0 0 0 0 0 0 0 0 0 0 0 1 1 1 1 1 1 1 1 1 0 0 0 0 0 0 0 0 0
0 0 0 0 0 0 0 0 0 0 -0 0 0 0 0 0 0 0 0 0 0 0 0 0 0 0 0 0 0 0 0 0 1 1 1 1 1 1 1 1 1 0 0 0 0 0 0 0 0
0 0 0 0 0 0 0 0 0 -0 0 0 0 0 0 0 0 0 0 0 0 0 0 0 0 0 0 0 0 0 0 0 0 0 1 1 1 1 1 1 0 0 0 0 0 0 0 0 0
0 0 0 0 0 0 0 0 0 0 0 0 0 0 0 0 0 0 0 0 0 0 0 0 0 0 0 0 0 0 0 0 0 0 0 0 1 2 1 1 0 0 0 0 0 0 0 0 0
0 0 0 0 0 0 0 -0 -0 -0 0 0 0 0 0 0 0 0 0 0 0 0 0 0 0 0 0 0 0 0 0 0 0 0 0 0 0 1 2 1 1 0 0 0 0 0 0 0 0
0 0 0 0 0 0 0 0 0 0 0 0 0 0 0 0 0 0 0 0 0 0 0 0 0 0 0 0 0 0 0 0 0 0 0 0 0 0 1 1 1 0 0 0 0 0 0 0 0
0 0 0 0 0 0 0 0 0 0 0 0 0 0 0 0 0 0 0 0 0 0 0 0 0 0 0 0 0 0 0 0 0 0 0 0 0 0 0 0 1 0 0 0 0 0 0 0 0
0 0 0 0 0 0 0 0 0 0 0 0 0 0 0 0 0 0 0 0 -0 0 0 0 0 0 0 0 0 0 0 0 0 0 0 0 0 -0 0 0 0 1 0 0 0 0 0 0 0
0 0 0 0 0 0 0 0 0 0 0 0 0 0 0 0 0 0 0 0 0 0 0 0 0 0 0 0 0 0 0 0 0 0 0 0 0 0 0 0 0 0 0 0 0 0 0 0 0
0 0 0 0 0 0 0 0 0 0 0 0 0 0 0 0 -0 -0 0 0 0 0 0 0 0 0 0 0 0 0 0 0 0 0 0 0 0 0 0 0 0 1 1 0 0 0 0 0 0
0 0 0 0 0 0 0 0 0 0 0 0 0 0 0 0 0 0 0 0 0 0 0 0 0 0 0 0 0 0 0 0 0 0 0 0 0 0 0 0 0 0 0 0 0 0 0 0 0
0 0 0 0 0 0 0 0 0 0 0 0 0 0 0 0 0 0 0 0 0 0 0 0 0 0 0 0 0 0 0 0 0 0 0 0 0 0 0 0 0 0 0 0 0 0 0 0 0
0 0 0 0 0 0 0 0 0 0 0 0 0 0 0 0 0 0 0 0 0 0 0 0 0 0 0 0 0 0 0 0 0 0 0 0 0 0 0 0 0 0 0 0 0 0 0 0 0
0 0 0 0 0 -0 0 0 0 0 0 0 0 0 0 0 0 0 0 0 0 0 0 0 0 0 0 0 0 0 0 0 0 0 0 0 0 0 0 0 0 0 0 0 0 0 0 0 0
0 0 0 0 0 0 0 0 0 0 0 0 0 0 0 0 0 0 0 0 0 0 0 0 0 0 0 0 0 0 0 0 0 0 0 0 0 0 0 0 0 0 0 0 0 0 0 0 0
0 0 0 0 0 0 0 0 0 0 0 0 0 0 0 0 0 0 0 0 0 -0 0 0 0 0 0 0 0 0 0 0 0 0 0 0 0 0 0 0 0 0 0 0 0 -0 -0 -0 0
0 0 0 0 0 0 0 0 0 0 0 0 0 0 0 0 0 0 0 -0 0 -0 0 0 0 0 0 0 0 0 0 0 0 0 0 0 0 0 -0 0 0 0 0 -0 -0 -0 0 0 0
0 0 0 0 0 0 0 0 0 0 0 0 0 0 0 0 0 0 -0 -0 -0 -0 -0 0 0 0 0 0 0 0 0 0 0 0 0 0 0 0 0 0 0 0 0 0 0 0 0 0 0
0 0 0 0 0 0 0 0 0 0 0 0 0 0 0 0 0 -0 0 -0 -0 -0 -0 -0 0 0 0 0 0 0 0 0 0 0 0 0 0 0 0 0 -0 0 0 0 0 0 0 0 0
0 0 0 0 0 0 0 0 0 0 0 0 0 0 0 0 0 0 -0 -0 0 -0 -0 -0 -0 0 0 0 0 0 0 0 0 0 0 0 -0 0 0 0 0 0 0 0 0 0 0 0 0
Wind_Speed_500mb
10 12 13 12 11 11 24 18 21 5 5 7 6 12 13 32 14 3 10 22 29 13 16 29 35 37 38 39 40 39 39 37 36 34 32 30 30 30 33 35 29 23 15 11 16 22 25 23 28
16 22 12 10 13 21 18 28 12 15 18 13 16 19 19 14 9 7 4 31 31 13 3 24 33 38 39 41 40 40 39 39 38 37 34 32 31 33 36 37 33 25 20 17 24 21 27 25 34
24 27 12 9 17 28 22 13 8 9 13 11 10 6 13 8 12 7 22 29 32 9 6 18 33 36 39 44 43 41 39 39 39 39 37 35 31 34 37 39 34 28 25 25 30 28 26 28 30
8 10 11 14 33 27 25 9 5 9 5 2 9 17 4 6 3 12 23 27 28 21 9 23 28 38 42 42 45 44 42 40 39 39 40 37 33 33 40 42 38 34 32 31 32 36 37 35 32
6 9 16 19 37 34 2 10 13 17 12 8 11 9 11 4 4 17 23 28 31 29 16 26 22 34 45 46 44 48 47 46 43 42 42 40 38 36 40 42 40 39 35 30 38 36 34 40 36
10 9 16 26 34 32 4 12 22 22 17 17 16 21 14 6 6 27 30 34 33 30 25 24 30 31 43 50 50 49 52 51 50 48 45 44 43 42 44 43 44 40 35 32 37 37 35 34 46
13 12 26 32 31 25 5 14 17 19 22 16 11 15 13 8 8 39 41 42 42 35 32 28 33 37 37 53 54 53 55 57 56 53 51 49 45 46 46 45 44 42 41 34 32 37 41 38 44
7 7 15 12 17 19 8 15 10 18 18 13 11 11 13 14 44 51 49 49 37 41 41 35 35 38 42 45 57 59 59 60 61 58 56 52 49 47 46 47 46 46 45 37 33 34 40 33 48
3 9 15 16 11 7 8 14 22 18 32 35 35 37 41 46 42 44 43 37 35 34 32 41 38 40 43 41 46 62 65 67 62 61 59 56 54 54 53 51 50 49 47 40 34 36 36 27 41
6 8 12 10 12 18 26 24 26 20 33 41 35 35 29 34 42 42 39 40 37 36 35 38 42 41 43 48 45 50 58 68 69 66 65 63 61 57 56 55 54 54 49 44 40 39 35 34 38
6 7 11 8 12 16 21 33 33 35 31 26 26 37 39 40 37 36 36 38 40 41 40 40 46 46 42 43 50 47 51 57 65 73 70 69 68 62 56 57 59 59 54 50 49 47 44 46 41
8 5 8 11 11 16 24 31 33 39 52 49 44 43 39 32 34 41 43 44 47 48 46 44 41 46 43 42 45 49 48 60 59 63 77 75 73 74 67 65 65 66 64 61 59 56 54 51 47
7 8 16 20 26 29 31 41 36 50 45 45 39 33 33 33 43 44 46 48 48 51 49 46 44 39 45 45 43 45 45 51 53 69 65 76 81 81 77 74 69 68 69 67 61 56 54 55 53
15 24 29 14 15 23 28 43 35 20 16 21 25 32 33 41 46 47 48 49 47 49 49 48 47 44 43 50 48 50 51 50 51 52 73 70 81 86 84 83 79 69 70 66 65 58 52 54 57
13 14 20 7 10 22 17 39 18 22 18 29 41 48 46 34 39 41 43 47 49 48 50 51 47 44 43 44 55 53 57 59 59 53 54 59 93 82 92 91 86 77 70 67 66 58 53 53 59
12 4 15 3 6 4 12 23 7 20 33 48 40 34 24 28 31 37 45 51 52 54 52 51 49 47 47 47 48 57 56 63 67 65 61 61 61 89 80 94 109 88 78 72 65 66 60 55 53
6 13 24 21 17 16 6 35 28 46 39 39 27 15 20 30 39 47 53 57 56 55 57 55 51 51 49 48 48 48 59 59 69 68 65 62 64 71 89 79 106 100 83 79 75 72 67 64 58
19 19 21 32 20 26 33 44 29 36 27 14 6 13 26 39 49 58 65 67 60 54 54 54 52 52 47 47 50 50 48 59 62 67 64 62 62 54 63 65 98 104 97 88 84 77 73 69 62
17 23 30 38 32 24 27 44 33 7 2 4 9 25 37 51 64 71 65 64 62 54 53 52 52 50 49 46 46 49 50 49 51 64 65 63 57 70 57 74 83 72 90 104 92 88 77 66 57
19 22 24 22 10 36 29 35 34 13 8 9 20 35 52 69 74 66 65 64 57 57 54 51 51 50 49 48 47 48 44 41 39 49 59 63 63 50 56 56 65 94 79 110 93 89 82 76 71
26 11 30 40 51 19 19 23 12 18 13 14 23 49 65 72 70 65 62 63 59 55 52 55 58 54 51 50 46 47 49 45 37 50 53 45 49 55 62 59 56 80 84 96 90 85 91 88 86
12 26 40 37 18 11 12 13 23 6 11 5 43 61 70 70 66 64 64 61 57 57 56 54 54 55 49 50 47 46 45 45 41 39 40 42 51 50 47 44 49 56 77 73 96 89 91 88 84
16 38 38 17 11 15 7 10 12 4 9 28 48 70 76 72 69 70 67 63 60 51 56 50 50 47 44 47 42 40 48 43 38 32 42 40 52 50 52 62 39 53 40 34 79 79 76 60 64
25 25 23 9 7 9 8 12 13 13 15 41 58 73 73 70 65 62 61 60 56 50 53 44 41 35 32 40 37 38 38 32 32 30 40 42 53 43 40 52 28 49 71 62 56 59 67 64 50
20 19 10 6 8 18 8 16 7 7 17 38 49 70 69 63 61 60 60 61 60 55 52 45 37 29 13 19 22 27 29 29 28 31 32 35 43 61 41 41 33 39 49 64 68 69 75 83 77
7 7 6 13 19 23 19 10 11 4 25 51 54 61 62 62 60 59 59 58 55 52 49 45 38 27 17 9 16 28 19 25 26 31 33 37 37 47 68 45 55 41 57 61 66 73 67 75 79
4 5 4 9 13 8 7 12 26 6 29 44 52 63 63 62 63 64 60 54 55 51 48 45 40 33 21 15 16 22 24 23 25 31 29 34 34 26 41 47 38 46 79 83 78 65 75 73 70
3 3 4 6 11 15 17 21 12 29 37 34 38 52 60 63 62 67 62 56 54 52 49 42 35 32 27 19 18 28 37 35 34 41 36 38 36 25 36 51 44 39 48 67 68 69 63 66 66
7 6 5 4 7 9 14 10 4 15 24 32 35 53 58 61 61 66 62 55 51 49 48 41 36 34 28 23 21 24 25 32 37 32 32 37 34 26 15 56 74 30 39 82 57 54 57 58 67
5 6 7 6 2 11 15 18 10 6 16 34 42 52 55 56 60 61 56 51 49 47 46 43 37 33 29 24 22 22 22 26 31 35 33 23 34 36 26 31 47 40 43 48 41 39 34 40 54
Wind_Direction_500mb
151 147 164 189 232 237 258 240 262 245 242 32 330 273 300 244 297 359 338 354 339 308 325 240 227 219 212 219 219 217 214 210 209 209 206 200 195 190 186 186 184 183 192 192 176 161 155 157 153
144 144 157 225 250 240 259 220 208 250 24 313 275 259 253 257 38 59 21 339 345 355 9 249 231 223 218 217 222 220 220 218 214 213 212 208 205 201 194 192 192 199 210 205 184 176 184 172 166
143 146 217 227 240 247 266 68 358 334 309 295 284 261 324 32 59 62 352 349 353 330 229 205 233 237 230 220 221 223 220 221 219 215 209 210 212 205 202 201 201 206 220 209 199 191 186 182 184
153 205 246 245 248 252 281 37 14 296 195 358 326 268 112 47 111 22 354 356 353 331 243 210 223 240 244 234 228 227 219 219 220 217 214 215 215 209 207 209 210 218 221 215 225 214 209 218 205
191 235 244 243 257 266 169 332 307 283 298 285 336 257 309 192 169 351 342 346 345 343 283 232 236 230 243 239 239 230 227 221 220 221 220 222 216 211 212 214 217 223 228 219 209 218 215 215 212
215 270 238 248 255 254 13 344 305 283 284 290 291 312 273 200 239 339 322 331 333 334 313 266 245 240 234 236 239 237 231 226 224 223 223 225 221 217 216 217 220 222 210 197 209 218 219 223 211
272 236 253 264 275 276 342 350 313 326 293 293 318 283 267 275 257 323 320 318 314 315 314 284 263 247 242 234 236 239 236 232 229 227 224 224 220 219 220 220 219 212 204 210 223 222 223 219 213
275 267 259 255 276 279 40 328 318 305 298 308 286 258 278 305 310 310 312 309 312 302 302 294 280 266 250 240 235 236 238 236 232 231 230 230 227 220 217 220 213 208 207 218 226 224 217 224 211
317 244 262 270 286 320 340 324 310 304 278 281 269 273 288 299 310 316 315 314 312 309 303 294 282 277 270 254 238 234 237 236 237 235 233 231 227 224 221 214 211 209 213 222 219 222 220 223 208
284 263 351 10 321 294 311 305 309 301 295 283 281 282 293 305 308 312 313 312 311 310 310 298 285 279 277 272 263 245 239 240 236 235 233 230 229 223 216 215 215 215 220 221 218 223 226 215 210
347 302 5 332 318 306 299 290 286 273 275 282 317 303 303 305 307 309 309 306 306 305 304 302 294 281 274 274 269 265 253 239 239 236 234 231 229 221 214 215 216 216 218 219 221 227 222 213 213
287 304 296 299 298 290 283 294 284 273 271 294 300 298 303 309 315 314 310 305 303 302 300 300 300 291 278 270 270 266 259 246 241 239 234 233 228 224 216 214 219 215 216 216 218 219 221 217 205
268 326 289 280 290 284 293 287 279 277 285 291 291 287 300 299 313 311 311 309 304 301 298 296 295 290 281 267 261 261 260 253 246 240 236 232 232 230 221 214 218 216 212 210 213 219 223 217 212
325 307 294 292 307 302 293 289 283 261 288 283 293 291 293 296 311 311 312 309 307 303 299 295 290 286 278 269 260 258 256 255 256 245 244 241 228 234 229 222 218 219 211 210 208 212 220 221 216
322 324 301 250 274 303 319 283 222 258 255 288 300 296 294 307 311 313 316 315 310 304 300 293 289 284 277 271 263 259 256 257 253 254 244 243 243 229 232 230 219 214 214 213 208 205 211 215 217
329 291 329 139 251 300 315 285 261 300 298 296 303 302 313 314 319 320 321 319 316 308 301 294 286 279 271 269 266 260 262 258 257 252 251 243 245 247 230 231 228 214 215 208 203 206 206 210 214
61 311 313 328 233 317 256 295 298 303 302 299 303 312 306 311 316 318 318 317 311 304 301 294 288 280 273 266 261 258 253 256 253 257 252 252 258 248 253 234 220 217 211 212 207 210 209 210 213
316 310 306 306 309 315 292 284 297 313 304 297 302 303 314 318 319 318 313 311 308 300 297 294 289 282 275 267 256 249 256 255 253 251 251 253 255 263 256 256 227 222 216 211 210 209 213 216 211
311 309 300 301 314 303 295 295 293 343 177 210 306 322 321 319 317 315 311 309 306 302 296 294 290 285 276 266 259 253 243 250 247 250 246 247 255 250 266 246 246 244 216 209 218 210 211 208 212
310 298 297 313 263 322 296 292 294 206 251 287 322 326 322 321 320 318 315 313 309 304 300 297 291 286 276 266 255 243 243 247 249 251 249 244 250 253 252 251 236 229 214 216 217 211 206 210 203
328 296 315 310 322 274 296 271 192 214 238 276 315 327 327 326 323 321 319 313 313 308 302 298 293 284 273 266 253 245 237 241 241 247 249 244 238 245 248 257 258 237 233 216 224 215 208 204 209
311 347 316 315 322 308 21 291 318 140 239 286 331 330 329 331 326 322 320 316 314 310 305 302 298 296 277 263 250 237 235 237 242 252 243 240 242 237 240 251 247 231 216 217 229 211 213 222 220
268 319 304 312 282 312 165 265 326 197 317 330 327 333 336 330 327 321 320 318 315 313 312 311 302 295 280 256 242 234 233 235 240 241 249 241 244 234 234 233 250 250 199 212 212 212 207 228 244
311 303 296 249 251 256 103 5 291 9 338 326 331 337 333 327 322 318 317 317 316 319 318 318 311 302 288 258 239 223 230 236 242 247 245 254 246 244 231 227 227 248 239 224 214 226 231 200 242
354 331 327 296 288 307 155 311 318 16 323 335 329 330 330 327 323 321 320 320 322 325 324 323 327 321 322 270 228 220 228 234 247 255 265 265 260 238 234 210 224 246 231 227 225 217 205 222 215
346 337 1 308 320 312 298 243 317 202 331 334 328 331 331 331 327 325 323 322 324 324 325 327 333 330 325 216 204 201 213 238 246 251 253 249 266 249 237 230 222 246 236 232 223 218 220 223 224
96 312 16 268 254 268 236 253 271 224 340 334 336 338 336 335 332 329 327 327 326 326 326 331 333 332 321 283 256 231 224 236 243 245 249 250 249 258 240 237 256 249 225 225 227 225 229 229 227
275 73 253 199 299 310 308 295 281 345 335 338 340 341 336 336 336 335 333 333 334 332 335 333 332 329 324 305 283 264 247 249 251 253 259 252 243 262 230 226 238 257 239 222 218 219 227 234 231
181 212 213 285 265 302 311 321 83 343 341 342 338 339 337 336 338 341 339 340 338 340 343 340 334 329 319 305 286 267 261 251 251 252 252 246 241 253 268 225 233 294 252 216 207 206 216 232 232
225 252 224 268 237 257 272 278 145 16 14 352 339 339 337 339 342 346 347 346 348 346 348 349 341 333 326 313 295 283 276 260 252 249 246 234 231 244 258 216 208 274 231 221 217 218 217 225 229
Wind_Speed_850mb
10 12 13 12 11 11 24 18 21 5 5 7 6 12 13 32 14 3 10 22 29 13 16 29 35 37 38 39 40 39 39 37 36 34 32 30 30 30 33 35 29 23 15 11 16 22 25 23 28
16 22 12 10 13 21 18 28 12 15 18 13 16 19 19 14 9 7 4 31 31 13 3 24 33 38 39 41 40 40 39 39 38 37 34 32 31 33 36 37 33 25 20 17 24 21 27 25 34
24 27 12 9 17 28 22 13 8 9 13 11 10 6 13 8 12 7 22 29 32 9 6 18 33 36 39 44 43 41 39 39 39 39 37 35 31 34 37 39 34 28 25 25 30 28 26 28 30
8 10 11 14 33 27 25 9 5 9 5 2 9 17 4 6 3 12 23 27 28 21 9 23 28 38 42 42 45 44 42 40 39 39 40 37 33 33 40 42 38 34 32 31 32 36 37 35 32
6 9 16 19 37 34 2 10 13 17 12 8 11 9 11 4 4 17 23 28 31 29 16 26 22 34 45 46 44 48 47 46 43 42 42 40 38 36 40 42 40 39 35 30 38 36 34 40 36
10 9 16 26 34 32 4 12 22 22 17 17 16 21 14 6 6 27 30 34 33 30 25 24 30 31 43 50 50 49 52 51 50 48 45 44 43 42 44 43 44 40 35 32 37 37 35 34 46
13 12 26 32 31 25 5 14 17 19 22 16 11 15 13 8 8 39 41 42 42 35 32 28 33 37 37 53 54 53 55 57 56 53 51 49 45 46 46 45 44 42 41 34 32 37 41 38 44
7 7 15 12 17 19 8 15 10 18 18 13 11 11 13 14 44 51 49 49 37 41 41 35 35 38 42 45 57 59 59 60 61 58 56 52 49 47 46 47 46 46 45 37 33 34 40 33 48
3 9 15 16 11 7 8 14 22 18 32 35 35 37 41 46 42 44 43 37 35 34 32 41 38 40 43 41 46 62 65 67 62 61 59 56 54 54 53 51 50 49 47 40 34 36 36 27 41
6 8 12 10 12 18 26 24 26 20 33 41 35 35 29 34 42 42 39 40 37 36 35 38 42 41 43 48 45 50 58 68 69 66 65 63 61 57 56 55 54 54 49 44 40 39 35 34 38
6 7 11 8 12 16 21 33 33 35 31 26 26 37 39 40 37 36 36 38 40 41 40 40 46 46 42 43 50 47 51 57 65 73 70 69 68 62 56 57 59 59 54 50 49 47 44 46 41
8 5 8 11 11 16 24 31 33 39 52 49 44 43 39 32 34 41 43 44 47 48 46 44 41 46 43 42 45 49 48 60 59 63 77 75 73 74 67 65 65 66 64 61 59 56 54 51 47
7 8 16 20 26 29 31 41 36 50 45 45 39 33 33 33 43 44 46 48 48 51 49 46 44 39 45 45 43 45 45 51 53 69 65 76 81 81 77 74 69 68 69 67 61 56 54 55 53
15 24 29 14 15 23 28 43 35 20 16 21 25 32 33 41 46 47 48 49 47 49 49 48 47 44 43 50 48 50 51 50 51 52 73 70 81 86 84 83 79 69 70 66 65 58 52 54 57
13 14 20 7 10 22 17 39 18 22 18 29 41 48 46 34 39 41 43 47 49 48 50 51 47 44 43 44 55 53 57 59 59 53 54 59 93 82 92 91 86 77 70 67 66 58 53 53 59
12 4 15 3 6 4 12 23 7 20 33 48 40 34 24 28 31 37 45 51 52 54 52 51 49 47 47 47 48 57 56 63 67 65 61 61 61 89 80 94 109 88 78 72 65 66 60 55 53
6 13 24 21 17 16 6 35 28 46 39 39 27 15 20 30 39 47 53 57 56 55 57 55 51 51 49 48 48 48 59 59 69 68 65 62 64 71 89 79 106 100 83 79 75 72 67 64 58
19 19 21 32 20 26 33 44 29 36 27 14 6 13 26 39 49 58 65 67 60 54 54 54 52 52 47 47 50 50 48 59 62 67 64 62 62 54 63 65 98 104 97 88 84 77 73 69 62
17 23 30 38 32 24 27 44 33 7 2 4 9 25 37 51 64 71 65 64 62 54 53 52 52 50 49 46 46 49 50 49 51 64 65 63 57 70 57 74 83 72 90 104 92 88 77 66 57
19 22 24 22 10 36 29 35 34 13 8 9 20 35 52 69 74 66 65 64 57 57 54 51 51 50 49 48 47 48 44 41 39 49 59 63 63 50 56 56 65 94 79 110 93 89 82 76 71
26 11 30 40 51 19 19 23 12 18 13 14 23 49 65 72 70 65 62 63 59 55 52 55 58 54 51 50 46 47 49 45 37 50 53 45 49 55 62 59 56 80 84 96 90 85 91 88 86
12 26 40 37 18 11 12 13 23 6 11 5 43 61 70 70 66 64 64 61 57 57 56 54 54 55 49 50 47 46 45 45 41 39 40 42 51 50 47 44 49 56 77 73 96 89 91 88 84
16 38 38 17 11 15 7 10 12 4 9 28 48 70 76 72 69 70 67 63 60 51 56 50 50 47 44 47 42 40 48 43 38 32 42 40 52 50 52 62 39 53 40 34 79 79 76 60 64
25 25 23 9 7 9 8 12 13 13 15 41 58 73 73 70 65 62 61 60 56 50 53 44 41 35 32 40 37 38 38 32 32 30 40 42 53 43 40 52 28 49 71 62 56 59 67 64 50
20 19 10 6 8 18 8 16 7 7 17 38 49 70 69 63 61 60 60 61 60 55 52 45 37 29 13 19 22 27 29 29 28 31 32 35 43 61 41 41 33 39 49 64 68 69 75 83 77
7 7 6 13 19 23 19 10 11 4 25 51 54 61 62 62 60 59 59 58 55 52 49 45 38 27 17 9 16 28 19 25 26 31 33 37 37 47 68 45 55 41 57 61 66 73 67 75 79
4 5 4 9 13 8 7 12 26 6 29 44 52 63 63 62 63 64 60 54 55 51 48 45 40 33 21 15 16 22 24 23 25 31 29 34 34 26 41 47 38 46 79 83 78 65 75 73 70
3 3 4 6 11 15 17 21 12 29 37 34 38 52 60 63 62 67 62 56 54 52 49 42 35 32 27 19 18 28 37 35 34 41 36 38 36 25 36 51 44 39 48 67 68 69 63 66 66
7 6 5 4 7 9 14 10 4 15 24 32 35 53 58 61 61 66 62 55 51 49 48 41 36 34 28 23 21 24 25 32 37 32 32 37 34 26 15 56 74 30 39 82 57 54 57 58 67
5 6 7 6 2 11 15 18 10 6 16 34 42 52 55 56 60 61 56 51 49 47 46 43 37 33 29 24 22 22 22 26 31 35 33 23 34 36 26 31 47 40 43 48 41 39 34 40 54
Wind_Direction_850mb
151 147 164 189 232 237 258 240 262 245 242 32 330 273 300 244 297 359 338 354 339 308 325 240 227 219 212 219 219 217 214 210 209 209 206 200 195 190 186 186 184 183 192 192 176 161 155 157 153
144 144 157 225 250 240 259 220 208 250 24 313 275 259 253 257 38 59 21 339 345 355 9 249 231 223 218 217 222 220 220 218 214 213 212 208 205 201 194 192 192 199 210 205 184 176 184 172 166
143 146 217 227 240 247 266 68 358 334 309 295 284 261 324 32 59 62 352 349 353 330 229 205 233 237 230 220 221 223 220 221 219 215 209 210 212 205 202 201 201 206 220 209 199 191 186 182 184
153 205 246 245 248 252 281 37 14 296 195 358 326 268 112 47 111 22 354 356 353 331 243 210 223 240 244 234 228 227 219 219 220 217 214 215 215 209 207 209 210 218 221 215 225 214 209 218 205
191 235 244 243 257 266 169 332 307 283 298 285 336 257 309 192 169 351 342 346 345 343 283 232 236 230 243 239 239 230 227 221 220 221 220 222 216 211 212 214 217 223 228 219 209 218 215 215 212
215 270 238 248 255 254 13 344 305 283 284 290 291 312 273 200 239 339 322 331 333 334 313 266 245 240 234 236 239 237 231 226 224 223 223 225 221 217 216 217 220 222 210 197 209 218 219 223 211
272 236 253 264 275 276 342 350 313 326 293 293 318 283 267 275 257 323 320 318 314 315 314 284 263 247 242 234 236 239 236 232 229 227 224 224 220 219 220 220 219 212 204 210 223 222 223 219 213
275 267 259 255 276 279 40 328 318 305 298 308 286 258 278 305 310 310 312 309 312 302 302 294 280 266 250 240 235 236 238 236 232 231 230 230 227 220 217 220 213 208 207 218 226 224 217 224 211
317 244 262 270 286 320 340 324 310 304 278 281 269 273 288 299 310 316 315 314 312 309 303 294 282 277 270 254 238 234 237 236 237 235 233 231 227 224 221 214 211 209 213 222 219 222 220 223 208
284 263 351 10 321 294 311 305 309 301 295 283 281 282 293 305 308 312 313 312 311 310 310 298 285 279 277 272 263 245 239 240 236 235 233 230 229 223 216 215 215 215 220 221 218 223 226 215 210
347 302 5 332 318 306 299 290 286 273 275 282 317 303 303 305 307 309 309 306 306 305 304 302 294 281 274 274 269 265 253 239 239 236 234 231 229 221 214 215 216 216 218 219 221 227 222 213 213
287 304 296 299 298 290 283 294 284 273 271 294 300 298 303 309 315 314 310 305 303 302 300 300 300 291 278 270 270 266 259 246 241 239 234 233 228 224 216 214 219 215 216 216 218 219 221 217 205
268 326 289 280 290 284 293 287 279 277 285 291 291 287 300 299 313 311 311 309 304 301 298 296 295 290 281 267 261 261 260 253 246 240 236 232 232 230 221 214 218 216 212 210 213 219 223 217 212
325 307 294 292 307 302 293 289 283 261 288 283 293 291 293 296 311 311 312 309 307 303 299 295 290 286 278 269 260 258 256 255 256 245 244 241 228 234 229 222 218 219 211 210 208 212 220 221 216
322 324 301 250 274 303 319 283 222 258 255 288 300 296 294 307 311 313 316 315 310 304 300 293 289 284 277 271 263 259 256 257 253 254 244 243 243 229 232 230 219 214 214 213 208 205 211 215 217
329 291 329 139 251 300 315 285 261 300 298 296 303 302 313 314 319 320 321 319 316 308 301 294 286 279 271 269 266 260 262 258 257 252 251 243 245 247 230 231 228 214 215 208 203 206 206 210 214
61 311 313 328 233 317 256 295 298 303 302 299 303 312 306 311 316 318 318 317 311 304 301 294 288 280 273 266 261 258 253 256 253 257 252 252 258 248 253 234 220 217 211 212 207 210 209 210 213
316 310 306 306 309 315 292 284 297 313 304 297 302 303 314 318 319 318 313 311 308 300 297 294 289 282 275 267 256 249 256 255 253 251 251 253 255 263 256 256 227 222 216 211 210 209 213 216 211
311 309 300 301 314 303 295 295 293 343 177 210 306 322 321 319 317 315 311 309 306 302 296 294 290 285 276 266 259 253 243 250 247 250 246 247 255 250 266 246 246 244 216 209 218 210 211 208 212
310 298 297 313 263 322 296 292 294 206 251 287 322 326 322 321 320 318 315 313 309 304 300 297 291 286 276 266 255 243 243 247 249 251 249 244 250 253 252 251 236 229 214 216 217 211 206 210 203
328 296 315 310 322 274 296 271 192 214 238 276 315 327 327 326 323 321 319 313 313 308 302 298 293 284 273 266 253 245 237 241 241 247 249 244 238 245 248 257 258 237 233 216 224 215 208 204 209
311 347 316 315 322 308 21 291 318 140 239 286 331 330 329 331 326 322 320 316 314 310 305 302 298 296 277 263 250 237 235 237 242 252 243 240 242 237 240 251 247 231 216 217 229 211 213 222 220
268 319 304 312 282 312 165 265 326 197 317 330 327 333 336 330 327 321 320 318 315 313 312 311 302 295 280 256 242 234 233 235 240 241 249 241 244 234 234 233 250 250 199 212 212 212 207 228 244
311 303 296 249 251 256 103 5 291 9 338 326 331 337 333 327 322 318 317 317 316 319 318 318 311 302 288 258 239 223 230 236 242 247 245 254 246 244 231 227 227 248 239 224 214 226 231 200 242
354 331 327 296 288 307 155 311 318 16 323 335 329 330 330 327 323 321 320 320 322 325 324 323 327 321 322 270 228 220 228 234 247 255 265 265 260 238 234 210 224 246 231 227 225 217 205 222 215
346 337 1 308 320 312 298 243 317 202 331 334 328 331 331 331 327 325 323 322 324 324 325 327 333 330 325 216 204 201 213 238 246 251 253 249 266 249 237 230 222 246 236 232 223 218 220 223 224
96 312 16 268 254 268 236 253 271 224 340 334 336 338 336 335 332 329 327 327 326 326 326 331 333 332 321 283 256 231 224 236 243 245 249 250 249 258 240 237 256 249 225 225 227 225 229 229 227
275 73 253 199 299 310 308 295 281 345 335 338 340 341 336 336 336 335 333 333 334 332 335 333 332 329 324 305 283 264 247 249 251 253 259 252 243 262 230 226 238 257 239 222 218 219 227 234 231
181 212 213 285 265 302 311 321 83 343 341 342 338 339 337 336 338 341 339 340 338 340 343 340 334 329 319 305 286 267 261 251 251 252 252 246 241 253 268 225 233 294 252 216 207 206 216 232 232
225 252 224 268 237 257 272 278 145 16 14 352 339 339 337 339 342 346 347 346 348 346 348 349 341 333 326 313 295 283 276 260 252 249 246 234 231 244 258 216 208 274 231 221 217 218 217 225 229